Home   Weather   Catania   Past weeks
Flag for Italy

Past Weather in Catania, Italy — Yesterday and Last 2 Weeks

Now
75 °F

Clear.


Feels Like: 75 °F
Forecast: 84 / 68 °F
Wind: 7 mph from East

Location: Catania / Fontanarossa

Current Time: Jun 19, 2019 at 9:53:17 pm

Latest Report: Jun 19, 2019 at 8:50 pm


Visibility: 10 mi

Pressure: 29.92 "Hg

Humidity: 83%

Dew Point: 70 °F

Location of CataniaLocation

Past Weather in Catania — Graph

°F

Catania Temperature Yesterday

Maximum temperature yesterday: 82 °F (at 11:50 am)
Minimum temperature yesterday: 64 °F (at 5:50 am)
Average temperature yesterday: 76 °F

High & Low Weather Summary for the Past Weeks

 TemperatureHumidityPressure
High99 °F (Jun 8, 11:20 am)100% (Jun 5, 3:20 am)30.15 "Hg (Jun 5, 3:20 am)
Low55 °F (Jun 5, 4:50 am)15% (Jun 10, 10:50 am)29.80 "Hg (Jun 11, 3:50 am)
Average76 °F64%29.95 "Hg
* Reported Jun 4 8:20 pm — Jun 19 8:20 pm, Catania. Weather by CustomWeather, © 2019

Note: Actual official high and low records may vary slightly from our data, if they occured in-between our weather recording intervals... More about our weather records

Advertising

Catania Weather History for the Previous 24 Hours

Scroll right to see more
 ConditionsComfort  
Time TempWeatherWind HumidityBarometerVisibility
8:20 pm
Wed, Jun 19
75 °FSunny.6 mph83%29.92 "Hg10 mi
7:50 pm77 °FSunny.9 mph79%29.89 "Hg10 mi
7:20 pm77 °FSunny.10 mph79%29.89 "Hg10 mi
6:50 pm79 °FSunny.12 mph70%29.89 "Hg10 mi
6:20 pm79 °FSunny.13 mph65%29.89 "Hg10 mi
5:50 pm79 °FSunny.13 mph74%29.89 "Hg10 mi
5:20 pm81 °FSunny.13 mph70%29.89 "Hg10 mi
4:50 pm81 °FSunny.13 mph74%29.92 "Hg10 mi
4:20 pm81 °FSunny.13 mph70%29.92 "Hg10 mi
3:50 pm82 °FSunny.14 mph66%29.92 "Hg10 mi
3:20 pm82 °FSunny.15 mph66%29.92 "Hg10 mi
2:50 pm81 °FSunny.14 mph66%29.92 "Hg10 mi
2:20 pm81 °FSunny.13 mph70%29.92 "Hg10 mi
1:50 pm81 °FSunny.13 mph66%29.92 "Hg10 mi
1:20 pm82 °FPassing clouds.12 mph62%29.92 "HgN/A
12:50 pm82 °FSunny.12 mph58%29.92 "Hg10 mi
12:20 pm82 °FSunny.13 mph58%29.92 "Hg10 mi
11:50 am81 °FSunny.12 mph58%29.92 "Hg10 mi
11:20 am82 °FSunny.13 mph55%29.92 "Hg10 mi
10:50 am82 °FSunny.12 mph55%29.95 "Hg10 mi
10:20 am82 °FSunny.12 mph55%29.95 "Hg10 mi
9:50 am84 °FSunny.2 mph48%29.95 "Hg10 mi
9:20 am81 °FSunny.3 mph54%29.92 "Hg10 mi
8:50 am77 °FPassing clouds.6 mph65%29.92 "HgN/A
7:50 am72 °FSunny.8 mph83%29.92 "Hg10 mi
7:20 am70 °FSunny.6 mph88%29.92 "Hg10 mi
6:50 am68 °FSunny.7 mph94%29.95 "Hg10 mi
6:20 am64 °FSunny.7 mph100%29.92 "Hg10 mi
5:50 am64 °FSunny.5 mph100%29.92 "Hg10 mi
5:20 am64 °FClear.3 mph100%29.92 "Hg10 mi
4:50 am66 °FClear.3 mph94%29.92 "Hg10 mi
4:20 am66 °FClear.7 mph94%29.92 "Hg10 mi
3:50 am66 °FClear.5 mph100%29.92 "Hg10 mi
3:20 am66 °FClear.6 mph100%29.92 "Hg10 mi
2:50 am68 °FClear.7 mph94%29.92 "Hg10 mi
2:20 am68 °FClear.2 mph100%29.92 "Hg10 mi
1:50 am70 °FClear.3 mph94%29.95 "Hg10 mi
1:20 am70 °FClear.7 mph94%29.95 "Hg10 mi
12:20 am73 °FClear.5 mph89%29.95 "Hg10 mi
11:50 pm
Tue, Jun 18
75 °FClear.6 mph83%29.98 "Hg10 mi
11:20 pm75 °FClear.8 mph89%29.95 "Hg10 mi
10:50 pm75 °FClear.8 mph89%29.98 "Hg10 mi
10:20 pm75 °FClear.8 mph89%29.98 "Hg10 mi
9:50 pm75 °FClear.9 mph89%29.95 "Hg10 mi
9:20 pm75 °FClear.9 mph89%29.95 "Hg10 mi
Weather by CustomWeather, © 2019

See weather overview